TimeMDT,TemperatureF,Dew PointF,Humidity,Sea Level PressureIn,VisibilityMPH,Wind Direction,Wind SpeedMPH,Gust SpeedMPH,PrecipitationIn,Events,Conditions,WindDirDegrees,DateUTC
12:53 AM,55.0,52.0,89,29.99,10.0,SSW,9.2,-,0.01,,Clear,210,2013-08-26 06:53:00
1:53 AM,53.1,51.1,93,30.00,10.0,South,5.8,-,N/A,,Clear,190,2013-08-26 07:53:00
2:53 AM,52.0,50.0,93,30.01,10.0,SE,8.1,-,N/A,,Clear,130,2013-08-26 08:53:00
3:53 AM,57.0,51.1,81,30.02,10.0,SW,10.4,-,N/A,,Clear,220,2013-08-26 09:53:00
4:53 AM,57.0,51.1,81,30.04,10.0,SSW,4.6,-,N/A,,Partly Cloudy,200,2013-08-26 10:53:00
5:53 AM,55.9,52.0,87,30.06,10.0,East,3.5,-,N/A,,Partly Cloudy,90,2013-08-26 11:53:00
6:53 AM,60.1,52.0,75,30.05,10.0,Calm,Calm,-,0.00,Rain,Light Rain,0,2013-08-26 12:53:00
7:53 AM,60.1,53.1,78,30.06,10.0,WSW,10.4,-,0.00,,Partly Cloudy,250,2013-08-26 13:53:00
8:53 AM,62.1,53.1,72,30.07,10.0,WSW,6.9,-,N/A,,Mostly Cloudy,250,2013-08-26 14:53:00
9:53 AM,64.9,52.0,63,30.07,10.0,West,5.8,-,N/A,,Clear,270,2013-08-26 15:53:00
10:53 AM,69.1,52.0,54,30.06,10.0,West,10.4,-,N/A,,Scattered Clouds,270,2013-08-26 16:53:00
11:53 AM,73.0,52.0,48,30.04,10.0,WSW,17.3,-,N/A,,Clear,240,2013-08-26 17:53:00
12:53 PM,73.0,48.9,42,30.03,10.0,West,5.8,-,N/A,,Scattered Clouds,260,2013-08-26 18:53:00
1:53 PM,75.0,48.9,40,30.02,10.0,SW,11.5,-,N/A,,Overcast,220,2013-08-26 19:53:00
2:53 PM,78.1,50.0,37,30.00,10.0,West,10.4,18.4,N/A,,Mostly Cloudy,270,2013-08-26 20:53:00
3:53 PM,77.0,48.0,36,29.97,10.0,WSW,16.1,-,N/A,,Mostly Cloudy,250,2013-08-26 21:53:00
4:53 PM,75.9,48.9,38,29.96,10.0,SW,11.5,-,N/A,,Overcast,230,2013-08-26 22:53:00
5:53 PM,75.0,48.9,40,29.98,10.0,South,6.9,-,N/A,,Overcast,190,2013-08-26 23:53:00
6:53 PM,75.0,48.9,40,29.95,10.0,WSW,6.9,-,N/A,,Overcast,240,2013-08-27 00:53:00
7:53 PM,69.1,51.1,53,29.99,10.0,WSW,9.2,-,N/A,,Mostly Cloudy,250,2013-08-27 01:53:00
8:53 PM,66.0,53.1,63,30.00,10.0,SW,5.8,-,N/A,,Overcast,230,2013-08-27 02:53:00
9:53 PM,63.0,54.0,72,30.02,10.0,South,9.2,-,N/A,,Scattered Clouds,170,2013-08-27 03:53:00
10:53 PM,60.1,54.0,80,30.01,10.0,South,5.8,-,N/A,,Clear,170,2013-08-27 04:53:00
11:53 PM,57.9,52.0,81,30.00,10.0,South,10.4,-,N/A,,Clear,180,2013-08-27 05:53:00